Погода в Эскуинтле

Гватемала     14°17′59″N   90°46′53″W
темп.,
°C
ветер,
м/с
пор.,
м/с
влажн.,
%
обл.,
%
осадки,
мм/ч
давл.,
гПа
погр.,
м
7 мая, пт
пт700:00+22в2395100 45.8 1014102
03:00+21св1296100 3.7 101374
06:00+22св2291100 6.4 101442
09:00+24юз0085100 0.5 1015148
12:00+27ю116999 1.1 1014659
15:00+28ююз216299 1.0 10121101
18:00+24зюз1281100 2.8 101337
21:00+23ссв1188100 1.2 101423
8 мая, сб
сб800:00+23с228492 1.4 101327
03:00+23св118274 0.0 101223
06:00+22св228374 0.0 101325
09:00+28ююз116073 0.0 1014733
12:00+30ююз3256100 0.1 10131371
15:00+28ю226356 1.6 1011911
18:00+24ююз008252 3.5 101326
21:00+23с21898 1.1 101427
9 мая, вс
вс900:00+23с118695 1.7 101321
03:00+23ссв118699 0.3 101115
06:00+22ссв228611 0.6 101329
09:00+27ю22689 0.0 1014640
12:00+30ю116173 2.2 10121306
15:00+28ююз227193 2.4 1011728
18:00+25зсз118326 3.6 101131
21:00+23ссв11883 0.1 101216
10 мая, пн
пн1000:00+23с118819 0.1 101221
03:00+22св118714 0.4 101112
06:00+22св118630 0.6 101221
09:00+28ю11685 0.1 1013578
12:00+30ююз225863 0.6 10111541
15:00+28юз227067 1.1 1010963
18:00+26з118210 1.4 101049
21:00+24св11887 0.0 101221
11 мая, вт
вт1100:00+23с11885 0.1 101223
03:00+23ссв118458 0.0 101017
06:00+22ссв228366 0.0 101227
09:00+28ююз116474 0.0 1013677
12:00+32ююз225426 0.3 10111470
15:00+31ююз325857 0.6 10091279
18:00+27зюз118141 3.2 101031
21:00+24ссв118991 0.2 101216